Location: Poughquag
(41.6090°N, 73.6820°W)
Time: 03:38:45
(UTC-04:00)

Transit 4A - Pass Details

Date: 07 June 2020
Orbit: 866 x 978 km, 66.8° (Epoch: 06 July)

Event Time Altitude Azimuth Distance (km) Brightness Sun altitude
Rises 08:04:35 0° 337° (NNW) 3,562 10.8 27.9°
Reaches altitude 10° 08:07:41 10° 352° (N) 2,637 10.4 28.4°
Maximum altitude 08:12:25 23° 43° (NE) 1,911 10.6 29.3°
Drops below altitude 10° 08:17:14 10° 94° (E) 2,686 11.9 30.2°
Sets 08:20:24 0° 108° (ESE) 3,644 12.0 30.8°
